International Virtual Aviation Organisation

Russian Federation and Kazakhstan MCD

 

Карточка аэропорта UWGG

Внимание!
Информация на этой странице в стадии наполнения.
Если вы не увидели какой-то информации, или заметили неточность - пожалуйста сообщите нам!
Спасибо!
Команда RU-STAFF
Название аэропортаСтригино
Название аэропорта (англ.)Strigino
Превышение256 ft. (78 m.)
Координаты56°13.8', 43°47.202'
Высота перехода900
Эшелон переходаBy ATC
Коды ответчика2120-2147
Зона ОрВДМосква РПИ (UUWV)
Данные METARUWGG 242300Z 16003MPS 8000 -SN OVC011 M00/M02 Q1004 R18L/190045 NOSIG
Проноз погоды (TAF)UWGG 241959Z 2421/2521 17003MPS 3500 -SN BKN011 TX02/2512Z TNM00/2421Z TEMPO 2421/2503 19005G10MPS 1000 SHSN BKN005CB BECMG 2503/2504 30003MPS
NOTAMshow/hide NOTAM
AWOS   TABLE

Информация о ВПП

ВПП Длина ВПП (м.) Покрытие Курс ВПП Частота ILS
18R2805Асфальтобетон179109.9
36L2805Асфальтобетон359109.5

Диспетчерские позиции

Позывной Наименование органа УВД Частота
UWGG_GNDНижний - Руление121.800
UWGG_TWRНижний - Вышка120.400
UWGG_R_APPНижний - Круг120.800
UWGG_APPНижний - Подход124.700



Спутниковое изображение